Location: Cruquius
(52.3348°N, 4.6319°E)
Time: 03:49:57
(UTC+00:00)

Cosmos 2239 Rocket - Pass Details

Date: 12 May 2021
Orbit: 955 x 990 km, 82.9° (Epoch: 14 June)

Event Time Altitude Azimuth Distance (km) Brightness Sun altitude
Rises 23:26:06 0° 349° (NNW) 3,699 9.1 -19.2°
Reaches altitude 10° 23:28:37 10° 349° (N) 2,751 8.1 -19.3°
Maximum altitude 23:34:57 85° 262° (W) 999 4.5 -19.3°
Enters shadow 23:38:02 33° 176° (S) 1,607 5.1 -19.3°
